This is the latest recevied weather packets stored in our database for station/object KE4EST. If no packets are shown the sender has not sent any weather packets the latest 10 day(s).
| Time | Temp. | Humidity | Pressure | Rain* | Wind** | Luminosity | Snow |
|---|---|---|---|---|---|---|---|
| 1777561550 | 16.67° C | 67% | 1012.9 hPa | 0 mm | - | 60 W/m² | - |
| 1777561245 | 16.67° C | 69% | 1012.7 hPa | 0 mm | - | 108 W/m² | - |
| 1777560944 | 16.67° C | 71% | 1012.8 hPa | 0 mm | - | 121 W/m² | - |
| 1777560642 | 16.67° C | 77% | 1012.5 hPa | 0 mm | - | 68 W/m² | - |
| 1777560340 | 16.67° C | 77% | 1012.8 hPa | 0 mm | - | 39 W/m² | - |
| 1777560037 | 16.11° C | 76% | 1012.9 hPa | 0 mm | - | 40 W/m² | - |
| 1777559733 | 16.11° C | 79% | 1012.6 hPa | 0 mm | - | 38 W/m² | - |
| 1777559430 | 16.11° C | 80% | 1012.7 hPa | 0 mm | - | 43 W/m² | - |
| 1777559126 | 16.11° C | 77% | 1012.6 hPa | 0 mm | - | 39 W/m² | - |
| 1777558821 | 15.56° C | 79% | 1012.6 hPa | 0 mm | - | 52 W/m² | - |
| 1777558517 | 15.56° C | 83% | 1012.6 hPa | 0 mm | - | 79 W/m² | - |
| 1777558214 | 15° C | 82% | 1012.6 hPa | 0 mm | - | 91 W/m² | - |
| 1777557909 | 15° C | 84% | 1012.5 hPa | 0 mm | - | 54 W/m² | - |
| 1777557607 | 15° C | 85% | 1012.6 hPa | 0 mm | - | 65 W/m² | - |
| 1777557303 | 14.44° C | 85% | 1012.7 hPa | 0 mm | - | 63 W/m² | - |
| 1777556999 | 13.89° C | 89% | 1012.7 hPa | 0 mm | - | 65 W/m² | - |
| 1777556694 | 13.89° C | 89% | 1012.6 hPa | 0 mm | - | 46 W/m² | - |
| 1777556391 | 13.89° C | 90% | 1012.5 hPa | 0 mm | - | 59 W/m² | - |
| 1777556086 | 13.33° C | 93% | 1012.5 hPa | 0 mm | - | 93 W/m² | - |
| 1777555786 | 12.78° C | 96% | 1012.5 hPa | 0 mm | - | 76 W/m² | - |
| 1777555482 | 12.78° C | 96% | 1012.5 hPa | 0 mm | - | 31 W/m² | - |
| 1777555178 | 12.78° C | 98% | 1012.3 hPa | 0 mm | - | 35 W/m² | - |
| 1777554876 | 12.78° C | 98% | 1012.1 hPa | 0 mm | - | 40 W/m² | - |
| 1777554572 | 12.22° C | 98% | 1012.1 hPa | 0 mm | - | 28 W/m² | - |
| 1777554270 | 12.22° C | 99% | 1012.4 hPa | 0 mm | - | 28 W/m² | - |
* Rain latest hour (hover to see other rain measurements)
** Current wind speed in m/s (hover to see current wind gust speed)